CZ-6A DEB, 54468

Orbit data source: Space-Track

CZ-6A DEB, 54468 is space debris in SSO originally from a launch on Fri, 11 Nov 2022 UTC launched from the Taiyaun Space Center, China (TSC). Debris objects in space refer to the collection of defunct objects orbiting the Earth. Examples of debris include non-operational satellites, rocket bodies, and fragments generated from explosions, collisions, or faulty payload assembly.

Loading next visibility...
Identifier
54468, 2022-151GU
Orbit
SSO
Country
Flag of CNCN / PRC
Related business
Manufacturer
SAST
Mission
Spacecraft
Bus & Motor
Unknown
Mass
Unknown
Launch date (UTC)
2022-11-11 (4 years ago)
Launch vehicle
Unknown
Launch site
Taiyaun Space Center, China (TSC)
Object type
Payload
Rocket body
Debris
Shape & HBR
Unknown shape, 0.1 m
Radar Cross Section
Medium (>0.1 m² and <1 m²)

Expand to show TLE details & history
Last TLE update: 9 hours ago

TLE from 9 hours ago
0 CZ-6A DEB
1 54468U 22151GU  26254.56367675  .00000520  00000-0  25225-3 0  9998
2 54468  98.7523 267.0270 0053816  97.3117 263.4181 14.21808539198383
Epoch: 2026-09-11T13:31Z
TLE epoch observation values (Epoch: 2026-09-11T13:31:41.671Z)
Latitude
-0.00004°
Longitude
73.51815°
Altitude
826.805 km
Speed
7.437 km/s
True Right ascension
17h 48m 06s
True Declination
0° 00' 00"
Sunlit
Object was in daylight at epoch
Visualization orbit readout
Latitude
Unknown
Longitude
Unknown
Altitude
Unknown
Speed
Unknown
Apparent Right ascension
Unknown
Apparent Declination
Unknown
Sunlit
N/A
Visualization observer readout
Local Sidereal Time
15:20:01
Azimuth
Unknown
Elevation
Unknown
Doppler factor
Unknown
Orbital elements
Apogee altitude
855.119 km
Perigee altitude
777.683 km
Semi-major axis
7,194.538 km
Eccentricity
0.00538
Inclination
98.7523°
RAAN
267.027°
Arg. of periapsis
97.3117°
True anomaly
262.80596°
Mean anomaly
263.4181°
Eccentric anomaly
263.11198°
Mean motion
3.55663 °/min
Orbital period
101.22 mins
BSTAR
0.00025225
Loading maneuver chart data...
Computing Atmospheric mass density...
Loading historical data...
Loading historical data...
Loading historical data...
Loading historical data...
Loading historical data...
Loading historical data...
Loading historical data...

Documentation

Showing up to 5 results
|